STARLINK-32118, 60280

Orbit data source: Space-Track

STARLINK-32118, 60280 is a payload satellite owned by SpaceX/Seattle (US) in LEO that was launched on Sun, 28 Jul 2024 UTC via an FALCON 9 launch vehicle from the Air Force Eastern Test Range (AFETR). Payload-class satellites include a variety of spacecraft equipped with specific instruments for various scientific and technological missions. These include communications satellites like Starlink; space stations such as the ISS; scientific satellites like the Hubble; Earth observation satellites from companies like Planet Labs, Umbra, and HawkEye 360; GPS; miniature CubeSats for education and research; and military/defense satellites.

Loading next visibility...
Identifier
60280, 2024-132C
Orbit
LEO
Country
Flag of USUS
Related business
Manufacturer
SpaceX/Seattle
Mission
Operational Commercial Communications
Bus & Motor
STARLINK V2M, Unknown motor
Mass
730 kg wet, ~700 kg dry
Launch date (UTC)
2024-07-28 (1 year ago)
Launch vehicle
FALCON 9
Launch site
Air Force Eastern Test Range (AFETR)
Object type
Payload
Rocket body
Debris
Shape & HBR
Box + 2 Pan, 17.7 m
Radar Cross Section
33.884 m², Large (>1 m²)

Expand to show TLE details & history
Last TLE update: 5 hours ago

TLE from 5 hours ago
0 STARLINK-32118
1 60280U 24132C   25312.86413036  .00007554  00000-0  26707-3 0  9998
2 60280  53.1623 253.5040 0001762 126.0230 234.0935 15.30180205 73064
Epoch: 2025-11-08T20:44Z
TLE epoch observation values (Epoch: 2025-11-08T20:44:20.863Z)
Latitude
0.00006°
Longitude
-105.87052°
Altitude
476.882 km
Speed
7.628 km/s
True Right ascension
16h 54m 00s
True Declination
0° 00' 00"
Sunlit
Object was in daylight at epoch
Visualization orbit readout
Latitude
Unknown
Longitude
Unknown
Altitude
Unknown
Speed
Unknown
Apparent Right ascension
Unknown
Apparent Declination
Unknown
Sunlit
N/A
Visualization observer readout
Local Sidereal Time
21:29:30
Azimuth
Unknown
Elevation
Unknown
Doppler factor
Unknown
Orbital elements
Apogee altitude
476.738 km
Perigee altitude
474.323 km
Semi-major axis
6,853.667 km
Eccentricity
0.00018
Inclination
53.1623°
RAAN
253.504°
Arg. of periapsis
126.023°
True anomaly
234.07715°
Mean anomaly
234.0935°
Eccentric anomaly
234.08532°
Mean motion
3.82524 °/min
Orbital period
94.11 mins
BSTAR
0.00026707
Loading maneuver chart data...
Computing Atmospheric mass density...
Loading historical data...
Loading historical data...
Loading historical data...
Loading historical data...
Loading historical data...
Loading historical data...
Loading historical data...

Documentation

Showing up to 5 results
|